LRTZ Weather Reports


time (UTC)temp
F
wind
direction
speed
knots
gust
knots
rain 1hr
in
rain 24hr
in
rain mn
in
humidity
%
barometer
mb
20260504050412 45 300 9.6 0.0 0.00 0.00 0.00 76 1015.0
20260504044903 43 300 9.6 0.0 0.00 0.00 0.00 71 1014.0
20260504043402 43 300 9.6 0.0 0.00 0.00 0.00 71 1014.0
20260504041903 43 300 9.6 0.0 0.00 0.00 0.00 71 1014.0
20260504040402 43 300 9.6 0.0 0.00 0.00 0.00 71 1014.0
20260504034903 43 300 9.6 0.0 0.00 0.00 0.00 71 1014.0
20260504033402 43 300 9.6 0.0 0.00 0.00 0.00 71 1014.0
20260504031859 43 300 9.6 0.0 0.00 0.00 0.00 71 1014.0
20260504030527 0 0.0 0.0 0.00 0.00 0.00
20260504024900 0 0.0 0.0 0.00 0.00 0.00
20260504023402 0 0.0 0.0 0.00 0.00 0.00
20260504021859 0 0.0 0.0 0.00 0.00 0.00
20260504020403 0 0.0 0.0 0.00 0.00 0.00
20260504014903 0 0.0 0.0 0.00 0.00 0.00
20260504013407 0 0.0 0.0 0.00 0.00 0.00
20260504012026 0 0.0 0.0 0.00 0.00 0.00
20260504010403 0 0.0 0.0 0.00 0.00 0.00
20260504005026 0 0.0 0.0 0.00 0.00 0.00
20260504003402 0 0.0 0.0 0.00 0.00 0.00
20260504001903 0 0.0 0.0 0.00 0.00 0.00
20260504000403 0 0.0 0.0 0.00 0.00 0.00
20260503234939 43 330 4.3 0.0 0.00 0.00 0.00 76 1016.0
20260503233402 43 330 4.3 0.0 0.00 0.00 0.00 76 1016.0
20260503231903 0 0.0 0.0 0.00 0.00 0.00
20260503230415 0 0.0 0.0 0.00 0.00 0.00
20260503224859 0 0.0 0.0 0.00 0.00 0.00
20260503223411 0 0.0 0.0 0.00 0.00 0.00
20260503221919 0 0.0 0.0 0.00 0.00 0.00
20260503220444 0 0.0 0.0 0.00 0.00 0.00
20260503214906 43 330 4.3 0.0 0.00 0.00 0.00 76 1017.0
20260503213402 43 330 4.3 0.0 0.00 0.00 0.00 76 1017.0
20260503211903 43 330 4.3 0.0 0.00 0.00 0.00 76 1017.0
20260503210402 43 330 4.3 0.0 0.00 0.00 0.00 76 1017.0
20260503204909 43 330 4.3 0.0 0.00 0.00 0.00 76 1017.0
20260503203526 0 0.0 0.0 0.00 0.00 0.00
20260503201903 45 330 4.3 0.0 0.00 0.00 0.00 71 1018.0
20260503200412 45 330 4.3 0.0 0.00 0.00 0.00 71 1018.0
20260503194928 45 330 4.3 0.0 0.00 0.00 0.00 71 1018.0
20260503193528 0 0.0 0.0 0.00 0.00 0.00
20260503191900 0 0.0 0.0 0.00 0.00 0.00
20260503190403 0 0.0 0.0 0.00 0.00 0.00
20260503185026 0 0.0 0.0 0.00 0.00 0.00
20260503183402 46 350 4.3 0.0 0.00 0.00 0.00 66 1018.0
20260503181902 46 350 4.3 0.0 0.00 0.00 0.00 66 1018.0
20260503180402 46 350 4.3 0.0 0.00 0.00 0.00 66 1018.0
20260503174922 52 360 4.3 0.0 0.00 0.00 0.00 50 1018.0
20260503173427 52 360 4.3 0.0 0.00 0.00 0.00 50 1018.0
20260503171902 52 360 4.3 0.0 0.00 0.00 0.00 50 1018.0
20260503170403 52 360 4.3 0.0 0.00 0.00 0.00 50 1018.0
20260503150402 0 0.0 0.0 0.00 0.00 0.00
20260503130403 0 0.0 0.0 0.00 0.00 0.00
20260503110424 55 30 12.2 0.0 0.00 0.00 0.00 55 1021.0
20260503090423 0 0.0 0.0 0.00 0.00 0.00
20260503080413 54 30 12.2 0.0 0.00 0.00 0.00 67 1021.0
20260503071901 52 10 12.2 0.0 0.00 0.00 0.00 77 1021.0
20260503070403 52 10 12.2 0.0 0.00 0.00 0.00 77 1021.0
20260503054902 46 360 9.6 0.0 0.00 0.00 0.00 82 1020.0
20260503053402 46 360 9.6 0.0 0.00 0.00 0.00 82 1020.0
20260503051859 46 360 9.6 0.0 0.00 0.00 0.00 82 1020.0